YAOGAN-34 02

导读

YAOGAN-34 02即遥感三十四号02星,是中国研制的遥感卫星,于北京时间2022年3月17日在酒泉卫星发射中心,由长征四号丙运载火箭发射升空,卫星顺利进入预定轨道,发射任务取得圆满成功。该卫星主要可提供国土普查、城市规划、农作物估产和防灾减灾等领域的信息服务,为国民经济发展提供有力支撑。

基本信息
目录编号:
52084
目录名称:
YAOGAN-34 02
国际标识:
2022-027A
轨道中心:
EARTH
卫星名称:
YAOGAN-34 02
卫星全名:
--
卫星状态:
在轨 (已飞行1551 天)
发射日期:
2022-03-17 UTC
国别 :
中国 (CN)
星等 :
--
轨道信息
数据来源 国际轨道数据 AOE轨道数据
星历时间 2026-06-15T06:37:49+0800
8小时前
查看轨道信息
2026-06-15T08:00:00+0800
7小时前
查看轨道信息
半长轴 7467.147km 7467.146km
偏心率 0.0051813 0.0051932
轨道倾角 63.396° 63.395°
近地点辐角 353.433° 353.421°
升交点赤经 206.874° 206.727°
平近点角 6.602° 283.044°
近地点 1050.32km 1050.23km
远地点 1127.7km 1127.788km
周期 107.027分钟 107.027分钟
每日圈数 13.454599 13.454601
详细信息
使用方式:
暂无
2D轨道图
3D轨道图
轨道高度分析图
轨道倾角分析图
轨道综合分析图
查看轨道综合分析图